contact:dominique.lefevre@mio.osupytheas.fr, maurice.libes@osupytheas.fr, didier.mallarino@osupytheas.fr
Project:EMSO http://www.emso-fr.org/EMSO-France
Depth: 2436.0 m
Title:EMSO Ligure Ouest : Data MII capteur CSTAR
DateTime,Latitude,Longitude,Instrument_Serial,Reference_Counts,Signal_Counts,Corrected_Signal_raw_counts,Calculated_Beam_c_inverse_meters,Internal_thermistor_counts
DateTime,Latitude,Longitude,Instrument_Serial,Reference_Counts,Signal_Counts,Corrected_Signal_raw_counts,Calculated_Beam_c_inverse_meters,Internal_thermistor_counts
2023-01-18T00:00:28,42.805,6.029,CST-1368DR,4413,4914,11834,01.109,551
2023-01-18T00:03:30,42.805,6.029,CST-1368DR,4413,4914,11834,01.109,551
2023-01-18T00:06:32,42.805,6.029,CST-1368DR,4413,4913,11832,01.110,551
2023-01-18T00:09:33,42.805,6.029,CST-1368DR,4413,4911,11828,01.111,551
2023-01-18T00:12:35,42.805,6.029,CST-1368DR,4413,4913,11832,01.110,551
2023-01-18T00:15:36,42.805,6.029,CST-1368DR,4413,4914,11835,01.109,551
2023-01-18T00:18:38,42.805,6.029,CST-1368DR,4413,4914,11834,01.109,551
2023-01-18T00:21:39,42.805,6.029,CST-1368DR,4413,4909,11822,01.113,551
2023-01-18T00:24:41,42.805,6.029,CST-1368DR,4413,4912,11829,01.111,551
2023-01-18T00:27:43,42.805,6.029,CST-1368DR,4413,4911,11828,01.111,551
2023-01-18T00:30:44,42.805,6.029,CST-1368DR,4413,4912,11829,01.111,551
2023-01-18T00:33:46,42.805,6.029,CST-1368DR,4413,4913,11831,01.110,551
2023-01-18T00:36:47,42.805,6.029,CST-1368DR,4413,4912,11830,01.111,551
2023-01-18T00:39:49,42.805,6.029,CST-1368DR,4413,4912,11829,01.111,551
2023-01-18T00:42:51,42.805,6.029,CST-1368DR,4413,4908,11819,01.114,551
2023-01-18T00:45:52,42.805,6.029,CST-1368DR,4413,4912,11830,01.111,551
2023-01-18T00:48:54,42.805,6.029,CST-1368DR,4413,4912,11831,01.110,551
2023-01-18T00:51:55,42.805,6.029,CST-1368DR,4413,4913,11831,01.110,551
2023-01-18T00:54:57,42.805,6.029,CST-1368DR,4413,4912,11829,01.111,551
2023-01-18T00:57:58,42.805,6.029,CST-1368DR,4413,4911,11828,01.111,551
2023-01-18T01:01:00,42.805,6.029,CST-1368DR,4413,4912,11829,01.111,551
2023-01-18T01:04:02,42.805,6.029,CST-1368DR,4413,4912,11829,01.111,551
2023-01-18T01:07:03,42.805,6.029,CST-1368DR,4413,4911,11828,01.111,551
2023-01-18T01:10:05,42.805,6.029,CST-1368DR,4413,4912,11829,01.111,551
2023-01-18T01:13:06,42.805,6.029,CST-1368DR,4413,4911,11828,01.111,551
2023-01-18T01:16:08,42.805,6.029,CST-1368DR,4413,4911,11827,01.112,551
2023-01-18T01:19:10,42.805,6.029,CST-1368DR,4413,4911,11828,01.111,551
2023-01-18T01:22:11,42.805,6.029,CST-1368DR,4413,4910,11826,01.112,551
2023-01-18T01:25:13,42.805,6.029,CST-1368DR,4413,4909,11823,01.113,551
2023-01-18T01:28:14,42.805,6.029,CST-1368DR,4413,4910,11826,01.112,551
2023-01-18T01:31:16,42.805,6.029,CST-1368DR,4413,4911,11826,01.112,551
2023-01-18T01:34:18,42.805,6.029,CST-1368DR,4413,4910,11825,01.112,551
2023-01-18T01:37:19,42.805,6.029,CST-1368DR,4413,4910,11825,01.112,551
2023-01-18T01:40:21,42.805,6.029,CST-1368DR,4413,4910,11825,01.112,551
2023-01-18T01:43:22,42.805,6.029,CST-1368DR,4413,4910,11825,01.112,551
2023-01-18T01:46:24,42.805,6.029,CST-1368DR,4413,4911,11826,01.112,551
2023-01-18T01:49:25,42.805,6.029,CST-1368DR,4413,4909,11823,01.113,551
2023-01-18T01:52:27,42.805,6.029,CST-1368DR,4413,4910,11825,01.112,551
2023-01-18T01:55:29,42.805,6.029,CST-1368DR,4413,4910,11824,01.113,551
2023-01-18T01:58:30,42.805,6.029,CST-1368DR,4413,4909,11823,01.113,551
2023-01-18T02:01:32,42.805,6.029,CST-1368DR,4413,4910,11824,01.113,551
2023-01-18T02:04:33,42.805,6.029,CST-1368DR,4413,4910,11824,01.113,551
2023-01-18T02:07:35,42.805,6.029,CST-1368DR,4413,4909,11823,01.113,551
2023-01-18T02:10:37,42.805,6.029,CST-1368DR,4413,4910,11825,01.112,551
2023-01-18T02:13:38,42.805,6.029,CST-1368DR,4413,4910,11824,01.113,551
2023-01-18T02:16:40,42.805,6.029,CST-1368DR,4413,4910,11824,01.113,551
2023-01-18T02:19:41,42.805,6.029,CST-1368DR,4413,4909,11822,01.113,551
2023-01-18T02:22:43,42.805,6.029,CST-1368DR,4413,4910,11824,01.113,551
2023-01-18T02:25:44,42.805,6.029,CST-1368DR,4413,4909,11823,01.113,551
2023-01-18T02:28:46,42.805,6.029,CST-1368DR,4413,4907,11818,01.115,551
2023-01-18T02:31:48,42.805,6.029,CST-1368DR,4413,4909,11823,01.113,551
2023-01-18T02:34:49,42.805,6.029,CST-1368DR,4413,4910,11826,01.112,551
2023-01-18T02:37:51,42.805,6.029,CST-1368DR,4413,4910,11825,01.112,551
2023-01-18T02:40:52,42.805,6.029,CST-1368DR,4413,4910,11825,01.112,551
2023-01-18T02:43:54,42.805,6.029,CST-1368DR,4413,4909,11823,01.113,551
2023-01-18T02:46:56,42.805,6.029,CST-1368DR,4413,4910,11824,01.113,551
2023-01-18T02:49:57,42.805,6.029,CST-1368DR,4413,4909,11823,01.113,551
2023-01-18T02:52:59,42.805,6.029,CST-1368DR,4413,4909,11823,01.113,551
2023-01-18T02:56:00,42.805,6.029,CST-1368DR,4413,4910,11824,01.113,551
2023-01-18T02:59:02,42.805,6.029,CST-1368DR,4413,4909,11823,01.113,551
2023-01-18T03:02:03,42.805,6.029,CST-1368DR,4413,4910,11824,01.113,551
2023-01-18T03:05:05,42.805,6.029,CST-1368DR,4413,4910,11826,01.112,551
2023-01-18T03:08:07,42.805,6.029,CST-1368DR,4413,4910,11825,01.112,550
2023-01-18T03:11:08,42.805,6.029,CST-1368DR,4413,4910,11824,01.113,551
2023-01-18T03:14:10,42.805,6.029,CST-1368DR,4413,4910,11824,01.113,551
2023-01-18T03:17:11,42.805,6.029,CST-1368DR,4413,4910,11824,01.113,551
2023-01-18T03:20:13,42.805,6.029,CST-1368DR,4413,4910,11824,01.113,551
2023-01-18T03:23:15,42.805,6.029,CST-1368DR,4413,4909,11823,01.113,551
2023-01-18T03:26:16,42.805,6.029,CST-1368DR,4413,4909,11823,01.113,551
2023-01-18T03:29:18,42.805,6.029,CST-1368DR,4413,4911,11826,01.112,551
2023-01-18T03:32:19,42.805,6.029,CST-1368DR,4413,4909,11822,01.113,551
2023-01-18T03:35:21,42.805,6.029,CST-1368DR,4413,4909,11823,01.113,551
2023-01-18T03:38:22,42.805,6.029,CST-1368DR,4413,4909,11822,01.113,551
2023-01-18T03:41:24,42.805,6.029,CST-1368DR,4413,4909,11823,01.113,551
2023-01-18T03:44:26,42.805,6.029,CST-1368DR,4413,4909,11823,01.113,551
2023-01-18T03:47:27,42.805,6.029,CST-1368DR,4413,4909,11822,01.113,551
2023-01-18T03:50:29,42.805,6.029,CST-1368DR,4413,4910,11825,01.112,551
2023-01-18T03:53:30,42.805,6.029,CST-1368DR,4413,4909,11823,01.113,551
2023-01-18T03:56:32,42.805,6.029,CST-1368DR,4413,4909,11822,01.113,551
2023-01-18T03:59:34,42.805,6.029,CST-1368DR,4413,4909,11822,01.113,551
2023-01-18T04:02:35,42.805,6.029,CST-1368DR,4413,4909,11823,01.113,551
2023-01-18T04:05:37,42.805,6.029,CST-1368DR,4413,4910,11824,01.113,551
2023-01-18T04:08:38,42.805,6.029,CST-1368DR,4413,4909,11823,01.113,551
2023-01-18T04:11:40,42.805,6.029,CST-1368DR,4413,4908,11820,01.114,551
2023-01-18T04:14:41,42.805,6.029,CST-1368DR,4413,4910,11825,01.112,551
2023-01-18T04:17:43,42.805,6.029,CST-1368DR,4413,4909,11823,01.113,551
2023-01-18T04:20:45,42.805,6.029,CST-1368DR,4413,4909,11823,01.113,551
2023-01-18T04:23:46,42.805,6.029,CST-1368DR,4413,4909,11823,01.113,551
2023-01-18T04:26:48,42.805,6.029,CST-1368DR,4413,4909,11822,01.113,551
2023-01-18T04:29:49,42.805,6.029,CST-1368DR,4413,4909,11823,01.113,551
2023-01-18T04:32:51,42.805,6.029,CST-1368DR,4413,4910,11825,01.112,551
2023-01-18T04:35:53,42.805,6.029,CST-1368DR,4413,4910,11824,01.113,551
2023-01-18T04:38:54,42.805,6.029,CST-1368DR,4413,4910,11825,01.112,551
2023-01-18T04:41:56,42.805,6.029,CST-1368DR,4413,4908,11820,01.114,551
2023-01-18T04:44:57,42.805,6.029,CST-1368DR,4413,4908,11820,01.114,551
2023-01-18T04:47:59,42.805,6.029,CST-1368DR,4413,4909,11823,01.113,551
2023-01-18T04:51:00,42.805,6.029,CST-1368DR,4413,4909,11823,01.113,551
2023-01-18T04:54:02,42.805,6.029,CST-1368DR,4413,4909,11822,01.113,551
2023-01-18T04:57:04,42.805,6.029,CST-1368DR,4413,4909,11822,01.113,551
2023-01-18T05:00:05,42.805,6.029,CST-1368DR,4413,4908,11821,01.114,551
2023-01-18T05:03:07,42.805,6.029,CST-1368DR,4413,4908,11819,01.114,551
2023-01-18T05:06:08,42.805,6.029,CST-1368DR,4413,4908,11820,01.114,551
2023-01-18T05:09:10,42.805,6.029,CST-1368DR,4413,4908,11820,01.114,551
2023-01-18T05:12:12,42.805,6.029,CST-1368DR,4413,4907,11819,01.114,551
2023-01-18T05:15:13,42.805,6.029,CST-1368DR,4413,4908,11820,01.114,551
2023-01-18T05:18:15,42.805,6.029,CST-1368DR,4413,4908,11820,01.114,551
2023-01-18T05:21:16,42.805,6.029,CST-1368DR,4413,4907,11818,01.115,551
2023-01-18T05:24:18,42.805,6.029,CST-1368DR,4413,4908,11820,01.114,551
2023-01-18T05:27:20,42.805,6.029,CST-1368DR,4413,4908,11820,01.114,551
2023-01-18T05:30:21,42.805,6.029,CST-1368DR,4413,4909,11822,01.113,551
2023-01-18T05:33:23,42.805,6.029,CST-1368DR,4413,4906,11816,01.115,551
2023-01-18T05:36:24,42.805,6.029,CST-1368DR,4413,4908,11821,01.114,551
2023-01-18T05:39:26,42.805,6.029,CST-1368DR,4413,4908,11819,01.114,551
2023-01-18T05:42:27,42.805,6.029,CST-1368DR,4413,4908,11819,01.114,551
2023-01-18T05:45:29,42.805,6.029,CST-1368DR,4413,4909,11822,01.113,551
2023-01-18T05:48:31,42.805,6.029,CST-1368DR,4413,4909,11822,01.113,551
2023-01-18T05:51:32,42.805,6.029,CST-1368DR,4413,4909,11823,01.113,551
2023-01-18T05:54:34,42.805,6.029,CST-1368DR,4413,4909,11823,01.113,551
2023-01-18T05:57:35,42.805,6.029,CST-1368DR,4413,4907,11817,01.115,551
2023-01-18T06:00:37,42.805,6.029,CST-1368DR,4413,4908,11821,01.114,551
2023-01-18T06:03:39,42.805,6.029,CST-1368DR,4413,4908,11820,01.114,551
2023-01-18T06:06:40,42.805,6.029,CST-1368DR,4413,4909,11823,01.113,551
2023-01-18T06:09:42,42.805,6.029,CST-1368DR,4413,4909,11823,01.113,551
2023-01-18T06:12:43,42.805,6.029,CST-1368DR,4413,4907,11818,01.115,551
2023-01-18T06:15:45,42.805,6.029,CST-1368DR,4413,4911,11826,01.112,551
2023-01-18T06:18:46,42.805,6.029,CST-1368DR,4413,4909,11822,01.113,551
2023-01-18T06:21:48,42.805,6.029,CST-1368DR,4413,4911,11827,01.112,551
2023-01-18T06:24:50,42.805,6.029,CST-1368DR,4413,4909,11822,01.113,551
2023-01-18T06:27:51,42.805,6.029,CST-1368DR,4413,4910,11824,01.113,551
2023-01-18T06:30:53,42.805,6.029,CST-1368DR,4413,4911,11826,01.112,551
2023-01-18T06:33:54,42.805,6.029,CST-1368DR,4413,4910,11825,01.112,551
2023-01-18T06:36:56,42.805,6.029,CST-1368DR,4413,4909,11822,01.113,551
2023-01-18T06:39:58,42.805,6.029,CST-1368DR,4413,4909,11822,01.113,551
2023-01-18T06:42:59,42.805,6.029,CST-1368DR,4413,4908,11821,01.114,551
2023-01-18T06:46:01,42.805,6.029,CST-1368DR,4413,4909,11822,01.113,551
2023-01-18T06:49:02,42.805,6.029,CST-1368DR,4413,4909,11823,01.113,551
2023-01-18T06:52:04,42.805,6.029,CST-1368DR,4413,4909,11823,01.113,551
2023-01-18T06:55:05,42.805,6.029,CST-1368DR,4413,4910,11824,01.113,551
2023-01-18T06:58:07,42.805,6.029,CST-1368DR,4413,4909,11823,01.113,551
2023-01-18T07:01:09,42.805,6.029,CST-1368DR,4413,4912,11829,01.111,551
2023-01-18T07:04:10,42.805,6.029,CST-1368DR,4413,4910,11824,01.113,551
2023-01-18T07:07:12,42.805,6.029,CST-1368DR,4413,4909,11823,01.113,551
2023-01-18T07:10:13,42.805,6.029,CST-1368DR,4413,4909,11823,01.113,551
2023-01-18T07:13:15,42.805,6.029,CST-1368DR,4413,4910,11825,01.112,551
2023-01-18T07:16:17,42.805,6.029,CST-1368DR,4413,4911,11827,01.112,551
2023-01-18T07:19:18,42.805,6.029,CST-1368DR,4413,4911,11827,01.112,551
2023-01-18T07:22:20,42.805,6.029,CST-1368DR,4413,4911,11826,01.112,551
2023-01-18T07:25:21,42.805,6.029,CST-1368DR,4413,4911,11828,01.111,551
2023-01-18T07:28:23,42.805,6.029,CST-1368DR,4413,4910,11825,01.112,551
2023-01-18T07:31:25,42.805,6.029,CST-1368DR,4413,4911,11828,01.111,551
2023-01-18T07:34:26,42.805,6.029,CST-1368DR,4413,4911,11828,01.111,551
2023-01-18T07:37:28,42.805,6.029,CST-1368DR,4413,4911,11828,01.111,551
2023-01-18T07:40:29,42.805,6.029,CST-1368DR,4413,4911,11827,01.112,551
2023-01-18T07:43:31,42.805,6.029,CST-1368DR,4413,4911,11826,01.112,551
2023-01-18T07:46:32,42.805,6.029,CST-1368DR,4413,4910,11825,01.112,551
2023-01-18T07:49:34,42.805,6.029,CST-1368DR,4413,4911,11827,01.112,551
2023-01-18T07:52:36,42.805,6.029,CST-1368DR,4413,4911,11827,01.112,551
2023-01-18T07:55:37,42.805,6.029,CST-1368DR,4413,4909,11823,01.113,551
2023-01-18T07:58:39,42.805,6.029,CST-1368DR,4413,4910,11825,01.112,551
2023-01-18T08:01:40,42.805,6.029,CST-1368DR,4413,4910,11826,01.112,551
2023-01-18T08:04:42,42.805,6.029,CST-1368DR,4413,4910,11825,01.112,551
2023-01-18T08:07:44,42.805,6.029,CST-1368DR,4413,4911,11826,01.112,551
2023-01-18T08:10:45,42.805,6.029,CST-1368DR,4413,4911,11828,01.111,551
2023-01-18T08:13:47,42.805,6.029,CST-1368DR,4413,4910,11824,01.113,551
2023-01-18T08:16:48,42.805,6.029,CST-1368DR,4413,4911,11828,01.111,551
2023-01-18T08:19:50,42.805,6.029,CST-1368DR,4413,4907,11818,01.115,551
2023-01-18T08:22:51,42.805,6.029,CST-1368DR,4413,4911,11827,01.112,551
2023-01-18T08:25:53,42.805,6.029,CST-1368DR,4413,4910,11825,01.112,551
2023-01-18T08:28:55,42.805,6.029,CST-1368DR,4413,4910,11824,01.113,551
2023-01-18T08:31:56,42.805,6.029,CST-1368DR,4413,4910,11824,01.113,551
2023-01-18T08:34:58,42.805,6.029,CST-1368DR,4413,4910,11824,01.113,551
2023-01-18T08:37:59,42.805,6.029,CST-1368DR,4413,4909,11823,01.113,551
2023-01-18T08:41:01,42.805,6.029,CST-1368DR,4413,4909,11822,01.113,551
2023-01-18T08:44:03,42.805,6.029,CST-1368DR,4413,4910,11824,01.113,551
2023-01-18T08:47:04,42.805,6.029,CST-1368DR,4413,4910,11825,01.112,551
2023-01-18T08:50:06,42.805,6.029,CST-1368DR,4413,4911,11827,01.112,551
2023-01-18T08:53:07,42.805,6.029,CST-1368DR,4413,4909,11822,01.113,551
2023-01-18T08:56:09,42.805,6.029,CST-1368DR,4413,4908,11821,01.114,551
2023-01-18T08:59:11,42.805,6.029,CST-1368DR,4413,4910,11826,01.112,551
2023-01-18T09:02:12,42.805,6.029,CST-1368DR,4413,4908,11820,01.114,551
2023-01-18T09:05:14,42.805,6.029,CST-1368DR,4413,4910,11826,01.112,551
2023-01-18T09:08:15,42.805,6.029,CST-1368DR,4413,4911,11826,01.112,551
2023-01-18T09:11:17,42.805,6.029,CST-1368DR,4413,4909,11822,01.113,551
2023-01-18T09:14:18,42.805,6.029,CST-1368DR,4413,4910,11826,01.112,551
2023-01-18T09:17:20,42.805,6.029,CST-1368DR,4413,4909,11822,01.113,551
2023-01-18T09:20:22,42.805,6.029,CST-1368DR,4413,4909,11823,01.113,551
2023-01-18T09:23:23,42.805,6.029,CST-1368DR,4413,4911,11826,01.112,551
2023-01-18T09:26:25,42.805,6.029,CST-1368DR,4413,4909,11822,01.113,551
2023-01-18T09:29:26,42.805,6.029,CST-1368DR,4413,4909,11823,01.113,551
2023-01-18T09:32:28,42.805,6.029,CST-1368DR,4413,4910,11824,01.113,551
2023-01-18T09:35:30,42.805,6.029,CST-1368DR,4413,4910,11825,01.112,551
2023-01-18T09:38:31,42.805,6.029,CST-1368DR,4413,4909,11823,01.113,551
2023-01-18T09:41:33,42.805,6.029,CST-1368DR,4413,4911,11826,01.112,551
2023-01-18T09:44:34,42.805,6.029,CST-1368DR,4413,4908,11820,01.114,551
2023-01-18T09:47:36,42.805,6.029,CST-1368DR,4413,4909,11822,01.113,551
2023-01-18T09:50:38,42.805,6.029,CST-1368DR,4413,4911,11826,01.112,551
2023-01-18T09:53:39,42.805,6.029,CST-1368DR,4413,4910,11825,01.112,551
2023-01-18T09:56:41,42.805,6.029,CST-1368DR,4413,4909,11822,01.113,551
2023-01-18T09:59:42,42.805,6.029,CST-1368DR,4413,4910,11824,01.113,551
2023-01-18T10:02:44,42.805,6.029,CST-1368DR,4413,4910,11826,01.112,551
2023-01-18T10:05:45,42.805,6.029,CST-1368DR,4413,4905,11814,01.116,551
2023-01-18T10:08:47,42.805,6.029,CST-1368DR,4413,4906,11816,01.115,551
2023-01-18T10:11:49,42.805,6.029,CST-1368DR,4413,4911,11827,01.112,551
2023-01-18T10:14:50,42.805,6.029,CST-1368DR,4413,4909,11823,01.113,551
2023-01-18T10:17:52,42.805,6.029,CST-1368DR,4413,4909,11822,01.113,551
2023-01-18T10:20:53,42.805,6.029,CST-1368DR,4413,4909,11822,01.113,551
2023-01-18T10:23:55,42.805,6.029,CST-1368DR,4413,4910,11824,01.113,551
2023-01-18T10:26:57,42.805,6.029,CST-1368DR,4413,4907,11819,01.114,551
2023-01-18T10:29:58,42.805,6.029,CST-1368DR,4413,4908,11820,01.114,551
2023-01-18T10:33:00,42.805,6.029,CST-1368DR,4413,4910,11825,01.112,551
2023-01-18T10:36:01,42.805,6.029,CST-1368DR,4413,4909,11822,01.113,551
2023-01-18T10:39:03,42.805,6.029,CST-1368DR,4413,4907,11818,01.115,551
2023-01-18T10:42:04,42.805,6.029,CST-1368DR,4413,4908,11820,01.114,551
2023-01-18T10:45:06,42.805,6.029,CST-1368DR,4413,4906,11816,01.115,551
2023-01-18T10:48:08,42.805,6.029,CST-1368DR,4413,4908,11820,01.114,551
2023-01-18T10:51:09,42.805,6.029,CST-1368DR,4413,4908,11821,01.114,551
2023-01-18T10:54:11,42.805,6.029,CST-1368DR,4413,4907,11817,01.115,551
2023-01-18T10:57:12,42.805,6.029,CST-1368DR,4413,4910,11825,01.112,551
2023-01-18T11:00:14,42.805,6.029,CST-1368DR,4413,4909,11823,01.113,551
2023-01-18T11:03:16,42.805,6.029,CST-1368DR,4413,4906,11816,01.115,551
2023-01-18T11:06:17,42.805,6.029,CST-1368DR,4413,4908,11820,01.114,551
2023-01-18T11:09:19,42.805,6.029,CST-1368DR,4413,4908,11819,01.114,551
2023-01-18T11:12:20,42.805,6.029,CST-1368DR,4413,4908,11820,01.114,551
2023-01-18T11:15:22,42.805,6.029,CST-1368DR,4413,4908,11819,01.114,551
2023-01-18T11:18:23,42.805,6.029,CST-1368DR,4413,4908,11820,01.114,551
2023-01-18T11:21:25,42.805,6.029,CST-1368DR,4413,4908,11819,01.114,551
2023-01-18T11:24:27,42.805,6.029,CST-1368DR,4413,4908,11820,01.114,551
2023-01-18T11:27:28,42.805,6.029,CST-1368DR,4413,4907,11819,01.114,551
2023-01-18T11:30:30,42.805,6.029,CST-1368DR,4412,4908,11824,01.113,551
2023-01-18T11:33:31,42.805,6.029,CST-1368DR,4413,4908,11820,01.114,551
2023-01-18T11:36:33,42.805,6.029,CST-1368DR,4412,4908,11822,01.113,551
2023-01-18T11:39:35,42.805,6.029,CST-1368DR,4413,4908,11821,01.114,551
2023-01-18T11:42:36,42.805,6.029,CST-1368DR,4413,4908,11820,01.114,551
2023-01-18T11:45:38,42.805,6.029,CST-1368DR,4412,4908,11822,01.113,551
2023-01-18T11:48:39,42.805,6.029,CST-1368DR,4413,4908,11820,01.114,551
2023-01-18T11:51:41,42.805,6.029,CST-1368DR,4413,4909,11823,01.113,551
2023-01-18T11:54:43,42.805,6.029,CST-1368DR,4413,4908,11819,01.114,551
2023-01-18T11:57:44,42.805,6.029,CST-1368DR,4413,4908,11821,01.114,551
2023-01-18T12:00:46,42.805,6.029,CST-1368DR,4413,4909,11823,01.113,551
2023-01-18T12:03:47,42.805,6.029,CST-1368DR,4413,4909,11822,01.113,551
2023-01-18T12:06:49,42.805,6.029,CST-1368DR,4412,4908,11824,01.113,551
2023-01-18T12:09:50,42.805,6.029,CST-1368DR,4413,4908,11820,01.114,551
2023-01-18T12:12:52,42.805,6.029,CST-1368DR,4413,4908,11820,01.114,551
2023-01-18T12:15:54,42.805,6.029,CST-1368DR,4413,4908,11820,01.114,551
2023-01-18T12:18:55,42.805,6.029,CST-1368DR,4412,4909,11824,01.113,551
2023-01-18T12:21:57,42.805,6.029,CST-1368DR,4413,4909,11822,01.113,551
2023-01-18T12:24:58,42.805,6.029,CST-1368DR,4413,4908,11821,01.114,551
2023-01-18T12:28:00,42.805,6.029,CST-1368DR,4412,4908,11822,01.113,551
2023-01-18T12:31:02,42.805,6.029,CST-1368DR,4413,4909,11823,01.113,551
2023-01-18T12:34:03,42.805,6.029,CST-1368DR,4413,4909,11822,01.113,551
2023-01-18T12:37:05,42.805,6.029,CST-1368DR,4413,4908,11821,01.114,551
2023-01-18T12:40:06,42.805,6.029,CST-1368DR,4413,4909,11823,01.113,551
2023-01-18T12:43:08,42.805,6.029,CST-1368DR,4412,4907,11821,01.114,551
2023-01-18T12:46:09,42.805,6.029,CST-1368DR,4413,4908,11820,01.114,551
2023-01-18T12:49:11,42.805,6.029,CST-1368DR,4413,4908,11820,01.114,551
2023-01-18T12:52:13,42.805,6.029,CST-1368DR,4412,4909,11825,01.112,551
2023-01-18T12:55:14,42.805,6.029,CST-1368DR,4412,4905,11815,01.116,551
2023-01-18T12:58:16,42.805,6.029,CST-1368DR,4413,4909,11823,01.113,551
2023-01-18T13:01:17,42.805,6.029,CST-1368DR,4413,4908,11820,01.114,551
2023-01-18T13:04:19,42.805,6.029,CST-1368DR,4413,4908,11821,01.114,551
2023-01-18T13:07:21,42.805,6.029,CST-1368DR,4413,4908,11821,01.114,551
2023-01-18T13:10:22,42.805,6.029,CST-1368DR,4413,4905,11813,01.116,551
2023-01-18T13:13:24,42.805,6.029,CST-1368DR,4413,4910,11824,01.113,551
2023-01-18T13:16:25,42.805,6.029,CST-1368DR,4413,4909,11822,01.113,551
2023-01-18T13:19:27,42.805,6.029,CST-1368DR,4413,4908,11820,01.114,551
2023-01-18T13:22:29,42.805,6.029,CST-1368DR,4413,4908,11821,01.114,551
2023-01-18T13:25:30,42.805,6.029,CST-1368DR,4413,4909,11822,01.113,551
2023-01-18T13:28:32,42.805,6.029,CST-1368DR,4413,4909,11823,01.113,551
2023-01-18T13:31:33,42.805,6.029,CST-1368DR,4413,4911,11827,01.112,551
2023-01-18T13:34:35,42.805,6.029,CST-1368DR,4413,4909,11823,01.113,551
2023-01-18T13:37:36,42.805,6.029,CST-1368DR,4413,4910,11825,01.112,551
2023-01-18T13:40:38,42.805,6.029,CST-1368DR,4413,4909,11823,01.113,551
2023-01-18T13:43:40,42.805,6.029,CST-1368DR,4413,4909,11822,01.113,551
2023-01-18T13:46:41,42.805,6.029,CST-1368DR,4413,4909,11823,01.113,551
2023-01-18T13:49:43,42.805,6.029,CST-1368DR,4413,4909,11823,01.113,551
2023-01-18T13:52:44,42.805,6.029,CST-1368DR,4413,4909,11822,01.113,551
2023-01-18T13:55:46,42.805,6.029,CST-1368DR,4413,4909,11822,01.113,551
2023-01-18T13:58:48,42.805,6.029,CST-1368DR,4413,4909,11823,01.113,551
2023-01-18T14:01:49,42.805,6.029,CST-1368DR,4412,4907,11821,01.114,551
2023-01-18T14:04:51,42.805,6.029,CST-1368DR,4413,4909,11822,01.113,551
2023-01-18T14:07:52,42.805,6.029,CST-1368DR,4413,4910,11824,01.113,551
2023-01-18T14:10:54,42.805,6.029,CST-1368DR,4412,4909,11824,01.113,551
2023-01-18T14:13:55,42.805,6.029,CST-1368DR,4412,4909,11824,01.113,551
2023-01-18T14:16:57,42.805,6.029,CST-1368DR,4412,4909,11825,01.112,551
2023-01-18T14:19:59,42.805,6.029,CST-1368DR,4412,4909,11824,01.113,551
2023-01-18T14:23:00,42.805,6.029,CST-1368DR,4413,4908,11821,01.114,551
2023-01-18T14:26:02,42.805,6.029,CST-1368DR,4412,4907,11821,01.114,551
2023-01-18T14:29:03,42.805,6.029,CST-1368DR,4412,4909,11824,01.113,551
2023-01-18T14:32:05,42.805,6.029,CST-1368DR,4412,4908,11822,01.113,551
2023-01-18T14:35:07,42.805,6.029,CST-1368DR,4413,4909,11823,01.113,551
2023-01-18T14:38:08,42.805,6.029,CST-1368DR,4413,4907,11819,01.114,551
2023-01-18T14:41:10,42.805,6.029,CST-1368DR,4412,4907,11821,01.114,551
2023-01-18T14:44:11,42.805,6.029,CST-1368DR,4412,4908,11823,01.113,551
2023-01-18T14:47:13,42.805,6.029,CST-1368DR,4413,4909,11822,01.113,551
2023-01-18T14:50:14,42.805,6.029,CST-1368DR,4412,4908,11822,01.113,551
2023-01-18T14:53:16,42.805,6.029,CST-1368DR,4412,4910,11827,01.112,551
2023-01-18T14:56:18,42.805,6.029,CST-1368DR,4412,4908,11823,01.113,551
2023-01-18T14:59:19,42.805,6.029,CST-1368DR,4412,4908,11822,01.113,551
2023-01-18T15:02:21,42.805,6.029,CST-1368DR,4412,4907,11821,01.114,551
2023-01-18T15:05:22,42.805,6.029,CST-1368DR,4412,4908,11824,01.113,551
2023-01-18T15:08:24,42.805,6.029,CST-1368DR,4413,4908,11820,01.114,551
2023-01-18T15:11:26,42.805,6.029,CST-1368DR,4412,4909,11825,01.112,551
2023-01-18T15:14:27,42.805,6.029,CST-1368DR,4413,4908,11821,01.114,551
2023-01-18T15:17:29,42.805,6.029,CST-1368DR,4412,4908,11822,01.113,551
2023-01-18T15:20:30,42.805,6.029,CST-1368DR,4412,4908,11822,01.113,551
2023-01-18T15:23:32,42.805,6.029,CST-1368DR,4412,4908,11822,01.113,551
2023-01-18T15:26:34,42.805,6.029,CST-1368DR,4412,4908,11822,01.113,551
2023-01-18T15:29:35,42.805,6.029,CST-1368DR,4412,4907,11821,01.114,551
2023-01-18T15:32:37,42.805,6.029,CST-1368DR,4412,4909,11825,01.112,551
2023-01-18T15:35:38,42.805,6.029,CST-1368DR,4413,4907,11817,01.115,551
2023-01-18T15:38:40,42.805,6.029,CST-1368DR,4412,4908,11822,01.113,551
2023-01-18T15:41:41,42.805,6.029,CST-1368DR,4412,4907,11821,01.114,551
2023-01-18T15:44:43,42.805,6.029,CST-1368DR,4412,4908,11823,01.113,551
2023-01-18T15:47:45,42.805,6.029,CST-1368DR,4412,4906,11818,01.115,551
2023-01-18T15:50:46,42.805,6.029,CST-1368DR,4412,4908,11822,01.113,551
2023-01-18T15:53:48,42.805,6.029,CST-1368DR,4412,4908,11823,01.113,551
2023-01-18T15:56:49,42.805,6.029,CST-1368DR,4412,4908,11822,01.113,551
2023-01-18T15:59:51,42.805,6.029,CST-1368DR,4412,4908,11823,01.113,551
2023-01-18T16:02:53,42.805,6.029,CST-1368DR,4412,4908,11823,01.113,551
2023-01-18T16:05:54,42.805,6.029,CST-1368DR,4412,4908,11823,01.113,551
2023-01-18T16:08:56,42.805,6.029,CST-1368DR,4412,4907,11821,01.114,551
2023-01-18T16:11:57,42.805,6.029,CST-1368DR,4412,4904,11813,01.116,551
2023-01-18T16:14:59,42.805,6.029,CST-1368DR,4412,4907,11820,01.114,551
2023-01-18T16:18:00,42.805,6.029,CST-1368DR,4412,4907,11820,01.114,551
2023-01-18T16:21:02,42.805,6.029,CST-1368DR,4412,4908,11822,01.113,551
2023-01-18T16:24:04,42.805,6.029,CST-1368DR,4412,4907,11821,01.114,551
2023-01-18T16:27:05,42.805,6.029,CST-1368DR,4412,4906,11818,01.115,551
2023-01-18T16:30:07,42.805,6.029,CST-1368DR,4412,4906,11819,01.114,551
2023-01-18T16:33:08,42.805,6.029,CST-1368DR,4412,4907,11820,01.114,551
2023-01-18T16:36:10,42.805,6.029,CST-1368DR,4412,4907,11821,01.114,551